Regional Weather Roundup
Issued by NWS

Home | Current Version | Previous Version | Text Only | Print | Product List | Glossary Off
Versions: 1 2 3 4 5 6 7 8 9 10 11 12 13 14 15 16 17 18 19 20 21 22 23 24 25 26 27 28 29 30 31 32 33 34 35 36 37 38 39 40 41 42 43 44 45 46 47 48 49 50

000
ASUS43 KLOT 261703
RWRIL

ILLINOIS REGIONAL WEATHER ROUNDUP
NATIONAL WEATHER SERVICE CHICAGO/ROMEOVILLE IL
1200 PM CDT THU MAY 26 2016

NOTE: "FAIR" INDICATES FEW OR NO CLOUDS BELOW 12,000 FEET WITH NO
SIGNIFICANT WEATHER AND/OR OBSTRUCTIONS TO VISIBILITY.

* THESE STATIONS ARE NOT UNDER NWS QUALITY CONTROL. THEY ALSO MAY NOT
  REPORT WEATHER SUCH AS PRECIPITATION OR FOG.

ILZ001-002-007-009-015-016-024-261800-
NORTHWEST ILLINOIS

CITY           SKY/WX    TMP DP  RH WIND       PRES   REMARKS
MOLINE         CLOUDY    82  65  56 S9G18     29.88F HX  84
STERLING*      MOSUNNY   77  62  59 SW9       29.90F
$$

ILZ003-004-008-010-011-017-018-261800-
NORTH CENTRAL ILLINOIS

CITY           SKY/WX    TMP DP  RH WIND       PRES   REMARKS
ROCKFORD       CLOUDY    76  62  62 SW7       29.93R
FREEPORT*      MOSUNNY   76  63  64 SW10      29.92S
ROCHELLE*      MOSUNNY   75  65  71 SW9       29.92S
$$

ILZ005-006-012>014-019>023-261800-
NORTHEAST ILLINOIS

CITY           SKY/WX    TMP DP  RH WIND       PRES   REMARKS
CHICAGO-OHARE  CLOUDY    75  64  68 S12       29.92F
CHICAGO-MIDWAY CLOUDY    74  63  68 S9        29.93R
AURORA         MOSUNNY   76  65  68 S8        29.93F
LANSING*       CLOUDY    74  65  74 SE8       29.93F
WAUKEGAN       PTSUNNY   77  66  68 S12       29.90S
DUPAGE AIRPORT CLOUDY    76  63  64 S10       29.92F
WHEELING       PTSUNNY   77  61  57 S13G21    29.93S
NORTHERLY ISL    N/A     74  62  66 S10         N/A
NORTHERLY ISL    N/A     74  62  66 S10         N/A
$$

LMZ740>746-261800-
SOUTHERN LAKE MICHIGAN

STATION/POSITION SKY/WX   TEMP    WIND        PRES    VSBY  WAVE
                          AIR SEA DIR/SP/G                  HT/PER
                          (F)     (DEG/KT/KT) (MB)    (MI)  (FT/S)
SOUTHERN BUOY              53 49  170/ 12/ 12 1012.9          1/ 3
WILMETTE HARBOR            61 56  150/  4/  6   N/A           1
HARRISON CRIB              71     170/ 12/ 12   N/A
BURNHAM HARBOR             74     190/  5/ 12   N/A
CALUMET HARBOR             73     170/ 14/ 18 1013.0R
BURNS HARBOR               73     190/ 16/ 21 1014.6R
MICHIGAN CITY              74     170/ 15/ 16   N/A
MICHIGAN CITY 6N           65 58  190/  8/ 10   N/A           1
ST. JOSEPH                 65 60  210/  6/  8   N/A           1
$$

ILZ025>027-034>036-040-047-049-050-058-095>099-261800-
WEST-CENTRAL ILLINOIS

CITY           SKY/WX    TMP DP  RH WIND       PRES   REMARKS
QUINCY         CLOUDY    77  65  66 S9        29.90F
MACOMB*        MOSUNNY   78  66  68 S8        29.93F HX  80
PITTSFIELD*    CLOUDY    79  67  66 S9        29.92F HX  81
$$

ILZ028>032-037-038-041>044-048-051>054-059>061-261800-
CENTRAL ILLINOIS

CITY           SKY/WX    TMP DP  RH WIND       PRES   REMARKS
BLOOMINGTON    CLOUDY    72  67  84 SW10      29.94F
DECATUR        CLOUDY    76  67  73 S10       29.90F
PEORIA         CLOUDY    75  65  70 S7        29.91F
SPRINGFIELD    MOSUNNY   80  66  62 S10       29.91F HX  82
TAYLORVILLE    NOT AVBL
$$

ILZ033-039-045-046-055>057-062-063-261800-
EAST-CENTRAL ILLINOIS

CITY           SKY/WX    TMP DP  RH WIND       PRES   REMARKS
CHAMPAIGN      CLOUDY    74  66  76 S14       29.93F
MATTOON          N/A     71  65  81 SE9       29.93F
$$

ILZ079-100>102-261800-
SOUTHWEST ILLINOIS

CITY           SKY/WX    TMP DP  RH WIND       PRES   REMARKS
ALTON          PTSUNNY   72  66  83 S12       29.96F
BELLEVILLE     PTSUNNY   72  72 100 VRB7      29.98S
CAHOKIA*       CLOUDY    71  65  81 S9G22     29.97F
SPARTA*        CLOUDY    68  65  90 S8        30.03R
$$

ILZ064>066-069>071-074>076-080>082-084>086-088>090-092>094-261800-
SOUTH-CENTRAL ILLINOIS

CITY           SKY/WX    TMP DP  RH WIND       PRES   REMARKS
CARBONDALE     TSTM      66  63  90 SE8       30.04F
MARION         TSTM      66  66 100 SE12        N/A
MT. VERNON     CLOUDY    66  63  88 SE6       30.00S
SALEM*         CLOUDY    70  65  84 S5        29.96R
$$

ILZ067-068-072-073-078-083-087-091-261800-
SOUTHEAST ILLINOIS

CITY           SKY/WX    TMP DP  RH WIND       PRES   REMARKS
LAWRENCEVILLE  CLOUDY    68  65  90 E10       30.01F
FLORA*         CLOUDY    67  65  93 SE18      29.94F
HARRISBURG*    CLOUDY    67  66  97 SE7       30.05F
ROBINSON*      CLOUDY    65  64  95 E15       29.97F
$$

ABBREVIATIONS USED IN REMARKS
   TC - TEMPERATURE IN CELSIUS
  WCI - WIND CHILL INDEX
   HX - HEAT INDEX
  VSB - VISIBILITY
$$





USA.gov is the U.S. government's official web portal to all federal, state and local government web resources and services.